Regional Weather Roundup
Issued by NWS

Home | Current Version | Previous Version | Graphics & Text | Print | Product List | Glossary On
Versions: 1 2 3 4 5 6 7 8 9 10 11 12 13 14 15 16 17 18 19 20 21 22 23 24 25 26 27 28 29 30 31 32 33 34 35 36 37 38 39 40 41 42 43 44 45 46 47 48 49 50
419
ASUS45 KCYS 191110
RWRWY

WYOMING REGIONAL WEATHER ROUNDUP
NATIONAL WEATHER SERVICE CHEYENNE WY
400 AM MST THU JAN 19 2017

NOTE:  "FAIR" INDICATES FEW OR NO CLOUDS BELOW 12,000 FEET
WITH NO SIGNIFICANT WEATHER AND/OR OBSTRUCTIONS TO VISIBILITY.

WYZ001-191200-
YELLOWSTONE NATIONAL PARK

CITY           SKY/WX    TMP DP  RH WIND       PRES   REMARKS
LK YELLOWSTONE   N/A     15  13  91 CALM      29.73F
W YELLOWSTONE  NOT AVBL

$$
WYZ002>013-054>058-071-098>099-191200-
NORTHERN WYOMING

CITY           SKY/WX    TMP DP  RH WIND       PRES   REMARKS
JACKSON        CLOUDY    10   9  92 W3        29.76F
CODY           FAIR      36  19  50 S14       29.58F WCI  27
GREYBULL       FAIR       2  -2  83 CALM      29.63F
WORLAND        FAIR      10   8  92 VRB5      29.61F WCI   2
SHERIDAN       FAIR      13  11  92 S3        29.52F
BUFFALO        FAIR      39  15  37 SW8       29.54F WCI  33
GILLETTE       FAIR      33  19  56 SW21      29.53F WCI  21
HULETT         FAIR      28  19  69 S10       29.56F WCI  19
NEWCASTLE      FAIR      21  16  79 N6        29.60F WCI  14

$$
WYZ014>020-022>026-101>103-191200-
CENTRAL WYOMING

CITY           SKY/WX    TMP DP  RH WIND       PRES   REMARKS
BIG PINEY      CLOUDY     4   0  83 CALM      29.77F
PINEDALE       CLOUDY     5   3  92 NW5       29.77F WCI  -4
DUBOIS         NOT AVBL
LANDER         FAIR      12   8  84 CALM      29.68F
RIVERTON       FAIR       4   1  88 W3        29.70F
CASPER         FAIR      31  19  61 SW28G41   29.65F WCI  17
DOUGLAS        FAIR      27  16  63 N6        29.61F WCI  20

$$
WYZ021-027>030-104>119-191200-
SOUTHERN WYOMING

CITY           SKY/WX    TMP DP  RH WIND       PRES   REMARKS
EVANSTON       FAIR      27   9  46 S5        29.74F WCI  22
ROCK SPRINGS   FAIR       7   3  84 E6        29.77F WCI  -3
RAWLINS        FAIR      24  15  68 VRB5      29.79F WCI  18
LARAMIE        FAIR       5   2  87 CALM      29.72F
CHEYENNE       FAIR      38  14  37 NW15      29.62F WCI  29
TORRINGTON     FAIR      28  17  63 NW7       29.59F WCI  21

$$




USA.gov is the U.S. government's official web portal to all federal, state and local government web resources and services.